Regional Weather Roundup
Issued by NWS

Home | Current Version | Previous Version | Graphics & Text | Print | Product List | Glossary On
Versions: 1 2 3 4 5 6 7 8 9 10 11 12 13 14 15 16 17 18 19 20 21 22 23 24 25 26 27 28 29 30 31 32 33 34 35 36 37 38 39 40 41 42 43 44 45 46 47 48 49 50
000
ASUS45 KTFX 211910
RWRMT
MONTANA REGIONAL WEATHER ROUNDUP
NATIONAL WEATHER SERVICE GREAT FALLS MT
100 PM MDT SAT OCT 21 2017

NOTE: "FAIR" INDICATES FEW OR NO CLOUDS BELOW 12000 FEET WITH NO
SIGNIFICANT WEATHER AND/OR OBSTRUCTIONS TO VISIBILITY.

MTZ001>007-043-212000-
WEST OF THE DIVIDE

CITY           SKY/WX    TMP DP  RH WIND       PRES   REMARKS
KALISPELL      CLOUDY    44  27  51 SW9       29.98F
MISSOULA       CLOUDY    45  27  49 SW5       30.01F
BUTTE          MOSUNNY   39  20  46 W8G20     30.01F
MULLAN PASS    CLOUDY    28  25  88 MISG      29.93F
ANACONDA         N/A     41  18  38 SE3       30.00S
DEER LODGE       N/A     43  18  36 S8        30.01S
EUREKA           N/A     46  25  42 MISG      29.96F
HAMILTON         N/A     45  23  42 S9        30.02S
LIBBY            N/A     45  32  61 S6        29.96F
PLAINS           N/A     47  30  51 CALM      30.01S
THOMPSON FALLS   N/A     45  35  67 E3        30.05S
$$

MTZ008-052>055-212000-
SOUTHWEST MONTANA

CITY           SKY/WX    TMP DP  RH WIND       PRES   REMARKS
BOZEMAN        CLOUDY    45  20  36 SW9       30.00S
DILLON         PTSUNNY   41  15  35 SW16      30.02F
W YELLOWSTONE  CLOUDY    27  25  93 SW16G23   30.08S WCI  14
ENNIS          CLOUDY    43  16  33 SW20      30.06F
THREE FORKS      N/A     50  14  23 W15       29.98S
TWIN BRIDGES     N/A     46  13  26 S9        30.00F
$$

MTZ009-010-012-014-046-048-049-054-212000-
EAST SLOPES AND CENTRAL MONTANA

CITY           SKY/WX    TMP DP  RH WIND       PRES   REMARKS
CUT BANK       SUNNY     45  19  35 W36G48    29.83R
GREAT FALLS    SUNNY     48  20  32 SW25G37   29.88R
MALMSTROM AFB  SUNNY     48  21  34 W24G36    29.88S
HELENA         MOSUNNY   46  20  35 W17G23    29.96F
BOWMANS CRNR     N/A     44  17  34 SW23G29   29.88S
CHOTEAU          N/A     48  16  27 W22G30    29.86S
FAIRFIELD        N/A     47  16  28 W29G37    29.87R
POWER            N/A     48  17  29 W24G36    29.86R
RAYNESFORD     PTSUNNY   47  20  35 W22G33    29.89R
ULM              N/A     48  20  33 W26G35    29.91R
$$

MTZ011-013-016-021-045-047-050-051-212000-
NORTH CENTRAL MONTANA

CITY           SKY/WX    TMP DP  RH WIND       PRES   REMARKS
HAVRE          SUNNY     54  27  35 W26G35    29.81R
LEWISTOWN      SUNNY     48  17  29 W16       29.86F
N BAR RANCH    PTSUNNY   48  16  27 W15G30    29.88S
CHINOOK          N/A     54  27  35 W24G33    29.79S
DENTON           N/A     49  19  29 W26G36    29.83R
GEYSER           N/A     47  18  31 W33G41    29.85S
GRASS RANGE    PTSUNNY   49  17  28 W25       29.83R
JUDITH GAP       N/A     47  17  30 W22G33    29.88R
WINIFRED         N/A     49  17  28 W16G30    29.84S
$$

MTZ017>020-022>027-061-062-212000-
NORTHEAST MONTANA

CITY           SKY/WX    TMP DP  RH WIND       PRES   REMARKS
GLASGOW        MOSUNNY   53  29  39 NW29G40   29.72S
JORDAN           N/A     55  24  30 NW29G38   29.79R
SIDNEY         CLOUDY    51  35  54 NW28G39   29.68R
WOLF POINT     SUNNY     56  31  38 NW31G44   29.71R
MALTA          SUNNY     54  30  40 W24G33    29.78R
PLENTYWOOD       N/A     46  36  66 W31G45    29.59R
POPLAR           N/A     52  34  50 W23G35    29.69R
SCOBEY           N/A     48  31  52 W31       29.66R
$$

MTZ028>42-056>058-212000-
SOUTHCENTRAL AND SOUTHEAST MONTANA

CITY           SKY/WX    TMP DP  RH WIND       PRES   REMARKS
BAKER          CLOUDY    52  31  44 NW30G44   29.75S
BILLINGS       MOSUNNY   53  16  23 W30G40    29.90S
LIVINGSTON     CLOUDY    46  18  32 W23G31    29.95S
MILES CITY     SUNNY     56  27  32 W30G41    29.80R
BIG TIMBER     PTSUNNY   48  18  29 W26G37    29.96R
EKALAKA          N/A     49  22  34 W23       29.79R
FORSYTH          N/A     54  21  28 W22G32    29.82F
HARLOWTON        N/A     47  18  31 W32G44    29.88F
LAUREL           N/A     54  14  20 W31G37    29.92R
$$

REGIONAL REPORTS...DAKOTAS

CITY           SKY/WX    TMP DP  RH WIND       PRES   REMARKS
WILLISTON      CLOUDY    49  36  61 W26G38    29.63R
MINOT          CLOUDY    51  38  60 W23G33    29.55R
DICKINSON      CLOUDY    48  37  65 W30G43    29.65S
BEACH          CLOUDY    46  34  61 NW30G39   29.76R
CROSBY         CLOUDY    46  37  71 W25G37    29.56R
TIOGA          CLOUDY    46  37  71 W30G39    29.58F
WATFORD CITY   CLOUDY    46  36  66 W23G32    29.65R
BISMARCK       CLOUDY    51  40  65 W12       29.65R
GRAND FORKS    PTSUNNY   66  43  43 W15       29.45F
FARGO          CLOUDY    61  44  53 W8        29.51R
BUFFALO SD       N/A     54  26  34 NW36G48   29.70S
RAPID CITY     SUNNY     57  20  23 NW24G37   29.82S
$$

REGIONAL REPORTS...WYOMING/IDAHO/WASHINGTON

CITY           SKY/WX    TMP DP  RH WIND       PRES   REMARKS
GILLETTE       SUNNY     51  14  22 NW29G35   29.90S
SHERIDAN       SUNNY     55  15  20 N21G28    29.89F
BUFFALO WY     MOSUNNY   51   8  17 N18G24    29.91F
CODY           MOSUNNY   46  17  31 SW14G22   29.98F
YELLOWSTONE LA   N/A     25  20  81 VRB6      30.07R WCI  18
IDAHO FALLS    MOSUNNY   42  26  53 SW22G29   30.17R
SALMON         CLOUDY    46  22  38 S14G22    30.07S
BOISE          CLOUDY    48  29  47 SE12G21   30.17S
SPOKANE        CLOUDY    43  37  79 S8        29.97S
$$

REGIONAL REPORTS...ALBERTA

CITY           SKY/WX    TMP DP  RH WIND       PRES   REMARKS
EDMONTON       SUNNY     46  27  46 NW6       29.69S
CALGARY        MOSUNNY   48  14  25 W12G20    29.70S
LETHBRIDGE     MOSUNNY   50  23  34 W31G41    29.77S
MEDICINE HAT   SUNNY     52  32  46 W14       29.75R
$$

REGIONAL REPORTS...SASKATCHEWAN

CITY           SKY/WX    TMP DP  RH WIND       PRES   REMARKS
SWIFT CURRENT  PTSUNNY   45  37  76 W24       29.66R
REGINA         CLOUDY    41  36  81 NW25G36   29.52R
SASKATOON      LGT RAIN  41  39  93 W20G29    29.56R
$$



USA.gov is the U.S. government's official web portal to all federal, state and local government web resources and services.